sat.trackr.live / text

‹ back to catalog

ELECTRON R/B

NORAD 69702 · 2026-146B

ROCKET_BODY UNKNOWN UNKNOWN

§ Identity

Operator
Country
US
Launch date
2026-06-26
Launch site
RLLB
Launch vehicle
Mass (kg)
RCS (m²)

External: N2YO · Heavens-Above · Gunter

§ Orbital elements

Epoch: 2026-07-24T23:12:00.629280Z

Period
90.79 min
Inclination
42.0718°
Eccentricity
0.0134533
Mean motion
15.86155451 rev/d
Perigee alt
223.1 km
Apogee alt
403.1 km
Semi-major
6,691.2 km
B*
1.2533e-3
RAAN
302.0306°
Arg perigee
89.4480°
Mean anomaly
272.1791°
Rev number
445

§ Raw data

ELECTRON R/B1 69702U 26146B   26205.96667395  .00695255  18727-3  12533-2 0  99952 69702  42.0718 302.0306 0134533  89.4480 272.1791 15.86155451  4457

JSON: /api/v1/satellites/69702 · /tle

For live sub-satellite position, see the globe view (requires WebGL).

§ Visibility from observer

Set your observer location to see the next 7 days of passes ≥ 10°. The values pass through the URL so the page stays shareable.

No JS? Fill the form by hand. The geolocation button needs JavaScript.